Time,TemperatureF,DewpointF,PressureIn,WindDirection,WindDirectionDegrees,WindSpeedMPH,WindSpeedGustMPH,Humidity,HourlyPrecipIn,Conditions,Clouds,dailyrainin,SoftwareType,DateUTC
2017-03-30 00:02:00,54.4,42.1,29.99,SE,126,0.0,5.0,63,0.00,,,0.00,Wunderground v.1.13,2017-03-30 04:02:00,
2017-03-30 00:08:00,54.2,41.9,29.99,East,100,0.0,5.0,63,0.00,,,0.00,Wunderground v.1.13,2017-03-30 04:08:00,
2017-03-30 00:14:00,54.2,41.9,29.98,ESE,114,0.0,5.0,63,0.00,,,0.00,Wunderground v.1.13,2017-03-30 04:14:00,
2017-03-30 00:20:00,54.1,41.8,29.98,ESE,113,0.0,5.0,63,0.00,,,0.00,Wunderground v.1.13,2017-03-30 04:20:00,
2017-03-30 00:26:00,54.1,41.8,29.98,ESE,113,0.0,5.0,63,0.00,,,0.00,Wunderground v.1.13,2017-03-30 04:26:00,
2017-03-30 00:32:00,54.1,41.8,29.97,ESE,109,0.0,5.0,63,0.00,,,0.00,Wunderground v.1.13,2017-03-30 04:32:00,
2017-03-30 00:38:00,54.1,41.4,29.97,ESE,109,0.0,5.0,62,0.00,,,0.00,Wunderground v.1.13,2017-03-30 04:38:00,
2017-03-30 00:44:00,54.1,41.4,29.97,SE,130,0.0,5.0,62,0.00,,,0.00,Wunderground v.1.13,2017-03-30 04:44:00,
2017-03-30 00:50:00,54.1,41.4,29.97,SE,130,0.0,5.0,62,0.00,,,0.00,Wunderground v.1.13,2017-03-30 04:50:00,
2017-03-30 00:56:00,54.1,41.4,29.97,SE,130,0.0,5.0,62,0.00,,,0.00,Wunderground v.1.13,2017-03-30 04:56:00,
2017-03-30 01:02:00,54.1,41.4,29.97,SE,130,0.0,5.0,62,0.00,,,0.00,Wunderground v.1.13,2017-03-30 05:02:00,
2017-03-30 01:08:00,54.2,41.5,29.97,SE,130,0.0,5.0,62,0.00,,,0.00,Wunderground v.1.13,2017-03-30 05:08:00,
2017-03-30 01:14:00,54.2,41.5,29.96,SE,130,0.0,5.0,62,0.00,,,0.00,Wunderground v.1.13,2017-03-30 05:14:00,
2017-03-30 01:20:00,54.4,41.6,29.96,SE,130,0.0,5.0,62,0.00,,,0.00,Wunderground v.1.13,2017-03-30 05:20:00,
2017-03-30 01:26:00,54.4,41.6,29.96,SE,130,0.0,5.0,62,0.00,,,0.00,Wunderground v.1.13,2017-03-30 05:26:00,
2017-03-30 01:32:00,54.5,41.7,29.94,SE,128,0.0,5.0,62,0.00,,,0.00,Wunderground v.1.13,2017-03-30 05:32:00,
2017-03-30 01:38:00,54.5,41.7,29.94,SE,128,0.0,5.0,62,0.00,,,0.00,Wunderground v.1.13,2017-03-30 05:38:00,
2017-03-30 01:44:00,54.5,41.7,29.93,SE,128,0.0,5.0,62,0.00,,,0.00,Wunderground v.1.13,2017-03-30 05:44:00,
2017-03-30 01:50:00,54.5,41.7,29.93,SE,127,0.0,5.0,62,0.00,,,0.00,Wunderground v.1.13,2017-03-30 05:50:00,
2017-03-30 01:56:00,54.5,41.7,29.93,SE,127,0.0,5.0,62,0.00,,,0.00,Wunderground v.1.13,2017-03-30 05:56:00,
2017-03-30 02:02:00,54.5,41.7,29.93,SE,127,0.0,5.0,62,0.00,,,0.00,Wunderground v.1.13,2017-03-30 06:02:00,
2017-03-30 02:08:00,54.5,41.7,29.93,SE,127,0.0,5.0,62,0.00,,,0.00,Wunderground v.1.13,2017-03-30 06:08:00,
2017-03-30 02:14:00,54.7,41.9,29.93,SE,127,0.0,5.0,62,0.00,,,0.00,Wunderground v.1.13,2017-03-30 06:14:00,
2017-03-30 02:20:00,54.7,41.9,29.93,SE,127,0.0,5.0,62,0.00,,,0.00,Wunderground v.1.13,2017-03-30 06:20:00,
2017-03-30 02:26:00,54.7,41.5,29.93,SE,127,0.0,5.0,61,0.00,,,0.00,Wunderground v.1.13,2017-03-30 06:26:00,
2017-03-30 02:32:00,54.7,41.9,29.92,SE,126,0.0,5.0,62,0.00,,,0.00,Wunderground v.1.13,2017-03-30 06:32:00,
2017-03-30 02:38:00,54.7,41.9,29.92,SE,126,0.0,5.0,62,0.00,,,0.00,Wunderground v.1.13,2017-03-30 06:38:00,
2017-03-30 02:44:00,54.7,41.9,29.92,SE,126,0.0,5.0,62,0.00,,,0.00,Wunderground v.1.13,2017-03-30 06:44:00,
2017-03-30 02:50:00,54.7,41.9,29.92,SE,126,0.0,5.0,62,0.00,,,0.00,Wunderground v.1.13,2017-03-30 06:50:00,
2017-03-30 02:56:00,54.7,41.9,29.92,SE,124,0.0,5.0,62,0.00,,,0.00,Wunderground v.1.13,2017-03-30 06:56:00,
2017-03-30 03:02:00,54.7,41.9,29.91,SE,124,0.0,5.0,62,0.00,,,0.00,Wunderground v.1.13,2017-03-30 07:02:00,
2017-03-30 03:08:00,54.8,42.0,29.91,SE,124,0.0,5.0,62,0.00,,,0.00,Wunderground v.1.13,2017-03-30 07:08:00,
2017-03-30 03:14:00,55.0,42.2,29.91,SE,124,0.0,5.0,62,0.00,,,0.00,Wunderground v.1.13,2017-03-30 07:14:00,
2017-03-30 03:20:00,55.0,42.2,29.91,SE,124,0.0,5.0,62,0.00,,,0.00,Wunderground v.1.13,2017-03-30 07:20:00,
2017-03-30 03:26:00,55.1,42.3,29.91,SE,124,0.0,5.0,62,0.00,,,0.00,Wunderground v.1.13,2017-03-30 07:26:00,
2017-03-30 03:32:00,55.1,42.3,29.90,SE,124,0.0,5.0,62,0.00,,,0.00,Wunderground v.1.13,2017-03-30 07:32:00,
2017-03-30 03:38:00,55.1,42.3,29.90,SE,124,0.0,5.0,62,0.00,,,0.00,Wunderground v.1.13,2017-03-30 07:38:00,
2017-03-30 03:44:00,55.1,42.3,29.88,SE,124,0.0,5.0,62,0.00,,,0.00,Wunderground v.1.13,2017-03-30 07:44:00,
2017-03-30 03:50:00,55.1,42.3,29.88,SE,124,0.0,5.0,62,0.00,,,0.00,Wunderground v.1.13,2017-03-30 07:50:00,
2017-03-30 03:56:00,55.0,41.8,29.88,ESE,123,0.0,5.0,61,0.00,,,0.00,Wunderground v.1.13,2017-03-30 07:56:00,
2017-03-30 04:02:00,55.1,41.9,29.87,NNE,18,0.0,5.0,61,0.00,,,0.00,Wunderground v.1.13,2017-03-30 08:02:00,
2017-03-30 04:08:00,55.1,41.9,29.87,NNE,25,1.0,5.0,61,0.00,,,0.00,Wunderground v.1.13,2017-03-30 08:08:00,
2017-03-30 04:14:00,55.1,41.9,29.86,NE,37,0.0,5.0,61,0.00,,,0.00,Wunderground v.1.13,2017-03-30 08:14:00,
2017-03-30 04:20:00,55.3,42.1,29.86,NE,40,0.0,5.0,61,0.00,,,0.00,Wunderground v.1.13,2017-03-30 08:20:00,
2017-03-30 04:26:00,55.3,42.1,29.86,NE,49,0.0,5.0,61,0.00,,,0.00,Wunderground v.1.13,2017-03-30 08:26:00,
2017-03-30 04:32:00,55.3,42.1,29.86,NE,49,0.0,5.0,61,0.00,,,0.00,Wunderground v.1.13,2017-03-30 08:32:00,
2017-03-30 04:38:00,55.3,42.1,29.86,NE,49,0.0,5.0,61,0.00,,,0.00,Wunderground v.1.13,2017-03-30 08:38:00,
2017-03-30 04:44:00,55.3,42.1,29.84,NE,49,0.0,5.0,61,0.00,,,0.00,Wunderground v.1.13,2017-03-30 08:44:00,
2017-03-30 04:50:00,55.1,41.9,29.84,NE,49,0.0,5.0,61,0.00,,,0.00,Wunderground v.1.13,2017-03-30 08:50:00,
2017-03-30 04:56:00,55.1,41.9,29.84,NE,49,0.0,5.0,61,0.00,,,0.00,Wunderground v.1.13,2017-03-30 08:56:00,
2017-03-30 05:02:00,55.0,42.2,29.84,NE,49,0.0,5.0,62,0.00,,,0.00,Wunderground v.1.13,2017-03-30 09:02:00,
2017-03-30 05:08:00,55.0,42.2,29.84,NE,49,0.0,5.0,62,0.00,,,0.00,Wunderground v.1.13,2017-03-30 09:08:00,
2017-03-30 05:14:00,54.8,42.0,29.83,NE,49,0.0,5.0,62,0.00,,,0.00,Wunderground v.1.13,2017-03-30 09:14:00,
2017-03-30 05:20:00,54.8,42.0,29.83,NE,49,0.0,5.0,62,0.00,,,0.00,Wunderground v.1.13,2017-03-30 09:20:00,
2017-03-30 05:26:00,54.8,42.0,29.83,NE,49,0.0,5.0,62,0.00,,,0.00,Wunderground v.1.13,2017-03-30 09:26:00,
2017-03-30 05:32:00,55.0,42.2,29.82,NE,48,0.0,5.0,62,0.00,,,0.00,Wunderground v.1.13,2017-03-30 09:32:00,
2017-03-30 05:38:00,55.0,42.2,29.82,NE,42,0.0,5.0,62,0.00,,,0.00,Wunderground v.1.13,2017-03-30 09:38:00,
2017-03-30 05:44:00,55.0,42.2,29.83,ESE,117,0.0,5.0,62,0.00,,,0.00,Wunderground v.1.13,2017-03-30 09:44:00,
2017-03-30 05:50:00,55.0,43.0,29.83,ESE,117,0.0,5.0,64,0.00,,,0.00,Wunderground v.1.13,2017-03-30 09:50:00,
2017-03-30 05:56:00,54.8,43.3,29.83,ESE,117,0.0,5.0,65,0.00,,,0.00,Wunderground v.1.13,2017-03-30 09:56:00,
2017-03-30 06:02:00,54.7,43.6,29.82,ESE,117,0.0,5.0,66,0.00,,,0.00,Wunderground v.1.13,2017-03-30 10:02:00,
2017-03-30 06:08:00,54.5,43.4,29.82,ESE,117,0.0,5.0,66,0.00,,,0.00,Wunderground v.1.13,2017-03-30 10:08:00,
2017-03-30 06:14:00,54.5,43.4,29.81,ESE,117,0.0,5.0,66,0.00,,,0.00,Wunderground v.1.13,2017-03-30 10:14:00,
2017-03-30 06:20:00,54.5,43.8,29.81,ESE,117,0.0,5.0,67,0.00,,,0.00,Wunderground v.1.13,2017-03-30 10:20:00,
2017-03-30 06:26:00,54.4,43.7,29.81,ESE,117,0.0,5.0,67,0.00,,,0.00,Wunderground v.1.13,2017-03-30 10:26:00,
2017-03-30 06:32:00,54.4,43.7,29.81,ESE,102,0.0,5.0,67,0.00,,,0.00,Wunderground v.1.13,2017-03-30 10:32:00,
2017-03-30 06:38:00,54.4,43.7,29.81,East,100,0.0,5.0,67,0.00,,,0.00,Wunderground v.1.13,2017-03-30 10:38:00,
2017-03-30 06:44:00,54.4,43.7,29.80,East,100,0.0,5.0,67,0.00,,,0.00,Wunderground v.1.13,2017-03-30 10:44:00,
2017-03-30 06:50:00,54.2,43.5,29.80,East,100,0.0,5.0,67,0.00,,,0.00,Wunderground v.1.13,2017-03-30 10:50:00,
2017-03-30 06:56:00,54.2,43.5,29.80,East,100,0.0,5.0,67,0.00,,,0.00,Wunderground v.1.13,2017-03-30 10:56:00,
2017-03-30 07:02:00,54.1,43.4,29.81,East,100,0.0,5.0,67,0.00,,,0.00,Wunderground v.1.13,2017-03-30 11:02:00,
2017-03-30 07:08:00,54.1,43.4,29.81,East,100,0.0,5.0,67,0.00,,,0.00,Wunderground v.1.13,2017-03-30 11:08:00,
2017-03-30 07:14:00,54.1,43.4,29.81,East,100,0.0,5.0,67,0.00,,,0.00,Wunderground v.1.13,2017-03-30 11:14:00,
2017-03-30 07:20:00,54.1,43.4,29.81,East,100,0.0,5.0,67,0.00,,,0.00,Wunderground v.1.13,2017-03-30 11:20:00,
2017-03-30 07:26:00,53.9,43.6,29.81,East,100,0.0,5.0,68,0.00,,,0.00,Wunderground v.1.13,2017-03-30 11:26:00,
2017-03-30 07:32:00,53.8,43.5,29.81,East,100,0.0,5.0,68,0.00,,,0.00,Wunderground v.1.13,2017-03-30 11:32:00,
2017-03-30 07:38:00,53.6,43.3,29.81,East,100,0.0,5.0,68,0.00,,,0.00,Wunderground v.1.13,2017-03-30 11:38:00,
2017-03-30 07:44:00,53.6,43.3,29.81,ESE,102,0.0,5.0,68,0.00,,,0.00,Wunderground v.1.13,2017-03-30 11:44:00,
2017-03-30 07:50:00,53.6,43.7,29.81,East,100,0.0,5.0,69,0.00,,,0.00,Wunderground v.1.13,2017-03-30 11:50:00,
2017-03-30 07:56:00,53.6,43.7,29.81,ESE,102,0.0,5.0,69,0.00,,,0.00,Wunderground v.1.13,2017-03-30 11:56:00,
2017-03-30 08:02:00,53.6,43.7,29.81,ESE,102,0.0,5.0,69,0.00,,,0.00,Wunderground v.1.13,2017-03-30 12:02:00,
2017-03-30 08:08:00,53.6,43.7,29.81,ESE,102,0.0,5.0,69,0.00,,,0.00,Wunderground v.1.13,2017-03-30 12:08:00,
2017-03-30 08:14:00,53.8,43.9,29.81,ESE,102,0.0,5.0,69,0.00,,,0.00,Wunderground v.1.13,2017-03-30 12:14:00,
2017-03-30 08:20:00,53.9,44.7,29.81,East,100,0.0,5.0,71,0.00,,,0.00,Wunderground v.1.13,2017-03-30 12:20:00,
2017-03-30 08:26:00,54.1,44.5,29.81,ESE,102,0.0,5.0,70,0.00,,,0.00,Wunderground v.1.13,2017-03-30 12:26:00,
2017-03-30 08:32:00,54.2,44.6,29.80,East,100,0.0,5.0,70,0.00,,,0.00,Wunderground v.1.13,2017-03-30 12:32:00,
2017-03-30 08:38:00,54.5,44.9,29.80,East,100,0.0,5.0,70,0.00,,,0.00,Wunderground v.1.13,2017-03-30 12:38:00,
2017-03-30 08:44:00,54.7,44.7,29.80,East,100,0.0,5.0,69,0.00,,,0.00,Wunderground v.1.13,2017-03-30 12:44:00,
2017-03-30 08:50:00,54.8,44.8,29.80,East,100,0.0,5.0,69,0.00,,,0.00,Wunderground v.1.13,2017-03-30 12:50:00,
2017-03-30 08:56:00,55.1,45.1,29.80,East,100,0.0,5.0,69,0.00,,,0.00,Wunderground v.1.13,2017-03-30 12:56:00,
2017-03-30 09:02:00,55.6,45.2,29.80,ESE,102,0.0,5.0,68,0.00,,,0.00,Wunderground v.1.13,2017-03-30 13:02:00,
2017-03-30 09:08:00,55.9,45.1,29.80,East,100,0.0,5.0,67,0.00,,,0.00,Wunderground v.1.13,2017-03-30 13:08:00,
2017-03-30 09:14:00,56.3,45.5,29.79,ESE,102,1.0,5.0,67,0.00,,,0.00,Wunderground v.1.13,2017-03-30 13:14:00,
2017-03-30 09:20:00,56.7,45.5,29.79,East,100,0.0,5.0,66,0.00,,,0.00,Wunderground v.1.13,2017-03-30 13:20:00,
2017-03-30 09:28:00,57.2,45.5,29.79,East,100,0.0,5.0,65,0.00,,,0.00,Wunderground v.1.13,2017-03-30 13:28:00,
2017-03-30 09:34:00,57.5,45.8,29.79,ESE,102,0.0,5.0,65,0.00,,,0.00,Wunderground v.1.13,2017-03-30 13:34:00,
2017-03-30 09:40:00,57.6,45.9,29.79,ESE,102,0.0,5.0,65,0.00,,,0.00,Wunderground v.1.13,2017-03-30 13:40:00,
2017-03-30 09:46:00,57.8,46.1,29.78,East,100,0.0,5.0,65,0.00,,,0.00,Wunderground v.1.13,2017-03-30 13:46:00,
2017-03-30 09:52:00,57.8,45.3,29.78,ESE,102,0.0,5.0,63,0.00,,,0.00,Wunderground v.1.13,2017-03-30 13:52:00,
2017-03-30 09:58:00,57.6,45.1,29.78,East,100,0.0,5.0,63,0.00,,,0.00,Wunderground v.1.13,2017-03-30 13:58:00,
2017-03-30 10:04:00,57.5,45.4,29.78,East,100,0.0,5.0,64,0.00,,,0.00,Wunderground v.1.13,2017-03-30 14:04:00,
2017-03-30 10:10:00,57.5,45.8,29.78,East,100,0.0,5.0,65,0.00,,,0.00,Wunderground v.1.13,2017-03-30 14:10:00,
2017-03-30 10:16:00,57.6,45.9,29.78,East,100,0.0,5.0,65,0.00,,,0.00,Wunderground v.1.13,2017-03-30 14:16:00,
2017-03-30 10:22:00,58.0,46.7,29.78,East,100,0.0,5.0,66,0.00,,,0.00,Wunderground v.1.13,2017-03-30 14:22:00,
2017-03-30 10:28:00,58.1,47.2,29.78,East,100,0.0,5.0,67,0.00,,,0.00,Wunderground v.1.13,2017-03-30 14:28:00,
2017-03-30 10:34:00,58.4,47.1,29.78,East,100,0.0,5.0,66,0.00,,,0.00,Wunderground v.1.13,2017-03-30 14:34:00,
2017-03-30 10:40:00,58.7,47.0,29.78,East,100,0.0,5.0,65,0.00,,,0.00,Wunderground v.1.13,2017-03-30 14:40:00,
2017-03-30 10:46:00,59.0,47.2,29.77,ESE,112,0.0,5.0,65,0.00,,,0.00,Wunderground v.1.13,2017-03-30 14:46:00,
2017-03-30 10:52:00,59.3,47.5,29.77,ESE,112,0.0,5.0,65,0.00,,,0.00,Wunderground v.1.13,2017-03-30 14:52:00,
2017-03-30 10:58:00,59.6,47.4,29.77,ESE,112,0.0,5.0,64,0.00,,,0.00,Wunderground v.1.13,2017-03-30 14:58:00,
2017-03-30 11:04:00,59.9,47.7,29.75,ESE,112,0.0,5.0,64,0.00,,,0.00,Wunderground v.1.13,2017-03-30 15:04:00,
2017-03-30 11:10:00,60.2,47.6,29.75,ESE,109,0.0,5.0,63,0.00,,,0.00,Wunderground v.1.13,2017-03-30 15:10:00,